Date String (YYYY-MM-DD hh:mm:ss) UTC,Instrument flags,Ambient pressure (hPa),Sample flow (lpm),Bypass flow (lpm),Sample temperature (°C),Ambient temperature (°C),ASC tube jacket temperature (°C),LED temperature (°C),Box temperature (°C),Sample RH (%),Span deviation,Mass concentration (μg/m³),Mass concentration (μg/m³),Mass concentration (μg/m³)
DateTimeUTC,F1_M11,P_M11,Q1_M11,Q2_M11,T1_M11,T2_M11,T3_M11,T4_M11,T5_M11,U1_M11,ZSPAN_M11,X0_M11,X2_M11,X1_M11
2022-06-20 13:00:00,,0825.2,5.00,0.00,29.9,29.0,00.0,38.7,31.8,20.2,0000.0,0009.62,0004.11,0002.77
2022-06-20 13:01:00,,0825.2,5.01,0.00,30.0,29.0,00.0,38.8,31.9,20.1,0000.0,0009.76,0004.10,0002.77
2022-06-20 13:02:00,,0825.2,5.00,0.00,30.0,29.0,00.0,38.8,31.9,20.1,0000.0,0009.94,0004.15,0002.76
2022-06-20 13:03:00,,0825.2,4.99,0.00,30.0,29.0,00.0,38.8,31.9,20.1,0000.0,0010.32,0004.20,0002.77
2022-06-20 13:04:00,,0825.2,5.01,0.00,30.0,29.0,00.0,38.8,31.9,20.1,0000.0,0010.49,0004.21,0002.76
2022-06-20 13:05:00,,0825.2,5.00,0.00,30.0,29.1,00.0,38.8,31.9,20.1,0000.0,0010.21,0004.24,0002.74
2022-06-20 13:06:00,,0825.2,4.99,0.00,30.0,29.1,00.0,38.8,31.9,20.1,0000.0,0010.42,0004.33,0002.74
2022-06-20 13:07:00,,0825.2,4.99,0.00,30.0,29.1,00.0,38.8,32.0,20.1,0000.0,0010.70,0004.37,0002.72
2022-06-20 13:08:00,,0825.2,5.01,0.00,30.1,29.1,00.0,38.8,32.0,20.0,0000.0,0010.91,0004.36,0002.71
2022-06-20 13:09:00,,0825.3,4.99,0.00,30.1,29.1,00.0,38.9,32.0,20.1,0000.0,0010.77,0004.31,0002.73
2022-06-20 13:10:00,,0825.3,5.00,0.00,30.1,29.2,00.0,38.9,32.0,20.1,0000.0,0010.52,0004.26,0002.73
2022-06-20 13:11:00,,0825.2,5.00,0.00,30.1,29.2,00.0,38.9,32.0,20.2,0000.0,0010.15,0004.23,0002.72
2022-06-20 13:12:00,,0825.2,4.99,0.00,30.1,29.2,00.0,38.9,32.0,20.3,0000.0,0009.94,0004.21,0002.71
2022-06-20 13:13:00,,0825.2,4.99,0.00,30.1,28.8,00.0,38.9,32.0,20.4,0000.0,0009.72,0004.15,0002.69
2022-06-20 13:14:00,,0825.2,5.01,0.00,30.1,28.1,00.0,38.8,31.8,20.8,0000.0,0009.37,0004.13,0002.68
2022-06-20 13:15:00,,0825.2,5.00,0.00,30.0,27.8,00.0,38.8,31.7,21.2,0000.0,0009.02,0004.07,0002.67
2022-06-20 13:16:00,,0825.2,4.99,0.00,30.0,27.8,00.0,38.8,31.6,21.4,0000.0,0009.00,0004.04,0002.66
2022-06-20 13:17:00,,0825.3,5.00,0.00,29.9,27.9,00.0,38.8,31.6,21.5,0000.0,0008.97,0004.01,0002.67
2022-06-20 13:18:00,,0825.2,5.01,0.00,29.9,28.0,00.0,38.8,31.6,21.6,0000.0,0008.73,0003.98,0002.66
2022-06-20 13:19:00,,0825.3,5.01,0.00,29.9,28.1,00.0,38.8,31.6,21.7,0000.0,0008.26,0003.92,0002.65
2022-06-20 13:20:00,,0825.2,5.00,0.00,29.9,28.2,00.0,38.7,31.6,21.7,0000.0,0008.22,0003.91,0002.62
2022-06-20 13:21:00,,0825.2,5.00,0.00,29.9,28.3,00.0,38.7,31.7,21.8,0000.0,0008.49,0003.98,0002.62
2022-06-20 13:22:00,,0825.3,5.00,0.00,29.9,28.4,00.0,38.7,31.7,21.9,0000.0,0008.51,0003.94,0002.61
2022-06-20 13:23:00,,0825.2,4.99,0.00,29.9,28.5,00.0,38.7,31.7,22.1,0000.0,0008.93,0003.89,0002.61
2022-06-20 13:24:00,,0825.3,5.00,0.00,29.9,28.6,00.0,38.7,31.7,22.2,0000.0,0008.99,0003.89,0002.63
2022-06-20 13:25:00,,0825.3,5.01,0.00,29.9,28.7,00.0,38.7,31.7,22.2,0000.0,0008.96,0003.85,0002.63
2022-06-20 13:26:00,,0825.2,5.01,0.00,29.9,28.8,00.0,38.7,31.7,22.4,0000.0,0009.13,0003.89,0002.64
2022-06-20 13:27:00,,0825.3,5.00,0.00,29.9,28.8,00.0,38.7,31.8,22.6,0000.0,0009.22,0003.93,0002.65
2022-06-20 13:28:00,,0825.3,5.00,0.00,29.9,28.9,00.0,38.7,31.8,22.6,0000.0,0008.98,0003.88,0002.64
2022-06-20 13:29:00,,0825.3,5.00,0.00,29.9,28.9,00.0,38.7,31.9,22.7,0000.0,0008.93,0003.84,0002.62
2022-06-20 13:30:00,,0825.3,4.99,0.00,30.0,29.0,00.0,38.8,31.9,22.7,0000.0,0009.15,0003.89,0002.65
2022-06-20 13:31:00,,0825.3,5.00,0.00,30.0,29.0,00.0,38.8,31.9,22.8,0000.0,0009.33,0003.91,0002.67
2022-06-20 13:32:00,,0825.4,5.00,0.00,30.0,29.0,00.0,38.8,31.9,22.9,0000.0,0009.56,0003.90,0002.67
2022-06-20 13:33:00,,0825.3,5.01,0.00,30.0,29.1,00.0,38.8,31.9,22.9,0000.0,0009.75,0003.96,0002.67
2022-06-20 13:34:00,,0825.3,5.00,0.00,30.0,29.1,00.0,38.8,31.9,23.0,0000.0,0009.35,0004.00,0002.68
2022-06-20 13:35:00,,0825.3,5.01,0.00,30.0,29.1,00.0,38.8,32.0,23.1,0000.0,0009.27,0004.00,0002.68
2022-06-20 13:36:00,,0825.4,4.99,0.00,30.1,29.2,00.0,38.8,32.0,23.1,0000.0,0009.28,0004.01,0002.68
2022-06-20 13:37:00,,0825.4,5.00,0.00,30.1,29.2,00.0,38.8,32.0,23.2,0000.0,0009.49,0004.02,0002.68
2022-06-20 13:38:00,,0825.3,5.01,0.00,30.1,29.2,00.0,38.9,32.0,23.2,0000.0,0009.57,0003.99,0002.68
2022-06-20 13:39:00,,0825.3,5.01,0.00,30.1,29.0,00.0,38.9,32.0,23.2,0000.0,0009.61,0003.98,0002.68
2022-06-20 13:40:00,,0825.3,5.00,0.00,30.1,28.1,00.0,38.8,31.8,23.2,0000.0,0009.97,0004.01,0002.70
2022-06-20 13:41:00,,0825.3,4.99,0.00,30.0,27.5,00.0,38.7,31.6,23.4,0000.0,0010.09,0004.00,0002.69
2022-06-20 13:42:00,,0825.3,5.01,0.00,29.9,27.5,00.0,38.7,31.5,23.5,0000.0,0010.03,0003.97,0002.66
2022-06-20 13:43:00,,0825.4,5.00,0.00,29.8,27.5,00.0,38.7,31.5,23.6,0000.0,0009.76,0003.91,0002.66
2022-06-20 13:44:00,,0825.3,4.99,0.00,29.8,27.7,00.0,38.7,31.5,23.7,0000.0,0009.44,0003.85,0002.66
2022-06-20 13:45:00,,0825.3,5.01,0.00,29.8,27.8,00.0,38.7,31.5,23.9,0000.0,0009.39,0003.83,0002.65
2022-06-20 13:46:00,,0825.3,5.00,0.00,29.8,28.0,00.0,38.7,31.5,24.1,0000.0,0009.24,0003.80,0002.65
2022-06-20 13:47:00,,0825.3,5.00,0.00,29.8,28.1,00.0,38.7,31.5,24.1,0000.0,0009.29,0003.80,0002.65
2022-06-20 13:48:00,,0825.3,5.00,0.00,29.8,28.2,00.0,38.6,31.6,24.1,0000.0,0009.18,0003.79,0002.64
2022-06-20 13:49:00,,0825.3,5.00,0.00,29.8,28.3,00.0,38.6,31.6,24.2,0000.0,0009.09,0003.80,0002.64
2022-06-20 13:50:00,,0825.3,4.99,0.00,29.8,28.4,00.0,38.6,31.6,24.4,0000.0,0009.10,0003.82,0002.65
2022-06-20 13:51:00,,0825.3,5.00,0.00,29.8,28.5,00.0,38.6,31.6,24.4,0000.0,0008.86,0003.83,0002.65
2022-06-20 13:52:00,,0825.3,5.00,0.00,29.8,28.6,00.0,38.6,31.7,24.5,0000.0,0008.57,0003.84,0002.66
2022-06-20 13:53:00,,0825.3,5.01,0.00,29.8,28.7,00.0,38.6,31.7,24.5,0000.0,0008.38,0003.82,0002.66
2022-06-20 13:54:00,,0825.3,5.00,0.00,29.8,28.7,00.0,38.7,31.7,24.6,0000.0,0008.59,0003.81,0002.67
2022-06-20 13:55:00,,0825.4,5.00,0.00,29.9,28.8,00.0,38.7,31.8,24.7,0000.0,0008.57,0003.80,0002.66
2022-06-20 13:56:00,,0825.3,5.00,0.00,29.9,28.8,00.0,38.7,31.7,24.7,0000.0,0008.59,0003.81,0002.64
2022-06-20 13:57:00,,0825.3,4.99,0.00,29.9,28.9,00.0,38.7,31.8,24.8,0000.0,0008.64,0003.80,0002.61
2022-06-20 13:58:00,,0825.3,5.01,0.00,29.9,28.9,00.0,38.7,31.8,24.8,0000.0,0008.97,0003.78,0002.59
2022-06-20 13:59:00,,0825.3,5.01,0.00,29.9,29.0,00.0,38.7,31.9,24.8,0000.0,0008.66,0003.76,0002.58
